Weather reports worldwide

Advertisment
Drumnadrochit, United Kingdom (99132): temperature & dewpoint: 12.06.2019 23:00:00 - 18.06.2019 23:00:00 (BST)Drumnadrochit, United Kingdom (99132): precipitation: 12.06.2019 23:00:00 - 18.06.2019 23:00:00 (BST)
Date & Time tt [°C] td [°C] rr [mm]
18.06.2019 23:00:00 - - -
18.06.2019 22:00:00 12,4 9,0 0,0
18.06.2019 21:00:00 12,7 9,0 0,0
18.06.2019 20:00:00 13,5 8,9 0,0
18.06.2019 19:00:00 14,8 8,1 0,0
18.06.2019 18:00:00 15,0 8,8 0,0
18.06.2019 17:00:00 14,9 8,6 0,0
18.06.2019 16:00:00 14,4 8,9 0,0
18.06.2019 15:00:00 15,1 8,1 0,0
18.06.2019 14:00:00 16,1 8,9 0,0
18.06.2019 13:00:00 15,6 8,4 0,0
18.06.2019 12:00:00 15,0 10,8 0,0
18.06.2019 11:00:00 14,4 10,5 0,0
18.06.2019 10:00:00 12,9 9,1 0,0
18.06.2019 09:00:00 11,8 9,2 0,2
18.06.2019 08:00:00 11,1 8,1 0,0
18.06.2019 07:00:00 10,9 7,7 0,2
18.06.2019 06:00:00 11,2 6,9 0,0
18.06.2019 05:00:00 10,7 8,5 0,4
18.06.2019 04:00:00 8,3 7,6 0,0
18.06.2019 03:00:00 8,4 6,9 0,0
18.06.2019 02:00:00 7,8 7,2 0,0
18.06.2019 01:00:00 9,9 8,1 0,0
18.06.2019 00:00:00 9,2 7,3 0,0
17.06.2019 23:00:00 9,9 8,5 0,0
17.06.2019 22:00:00 10,4 9,3 0,2
17.06.2019 21:00:00 11,7 8,6 0,0
17.06.2019 20:00:00 12,6 8,4 0,0
17.06.2019 19:00:00 12,4 9,8 0,0
17.06.2019 18:00:00 12,2 9,3 0,8
17.06.2019 17:00:00 12,4 9,6 1,0
17.06.2019 16:00:00 12,6 10,1 0,6
17.06.2019 15:00:00 12,1 8,6 0,4
17.06.2019 14:00:00 16,2 9,9 0,0
17.06.2019 13:00:00 13,6 8,8 0,0
17.06.2019 12:00:00 14,8 11,2 0,0
17.06.2019 11:00:00 13,5 9,1 0,0
17.06.2019 10:00:00 13,4 9,5 0,0
17.06.2019 09:00:00 11,7 9,1 0,2
17.06.2019 08:00:00 11,3 9,3 0,0
17.06.2019 07:00:00 11,2 10,4 0,0
17.06.2019 06:00:00 9,8 9,7 0,0
17.06.2019 05:00:00 9,6 9,4 0,0
17.06.2019 04:00:00 9,5 9,3 0,2
17.06.2019 03:00:00 9,8 9,4 0,8
17.06.2019 02:00:00 10,0 9,4 0,6
17.06.2019 01:00:00 10,4 8,6 0,0
17.06.2019 00:00:00 10,4 8,3 0,0
16.06.2019 23:00:00 10,9 8,7 0,0
16.06.2019 22:00:00 11,1 8,9 0,0
16.06.2019 21:00:00 12,0 8,5 0,0
16.06.2019 20:00:00 12,7 8,1 0,0
16.06.2019 19:00:00 14,0 7,0 0,0
16.06.2019 18:00:00 16,2 6,0 0,0
16.06.2019 17:00:00 15,3 7,1 0,0
16.06.2019 16:00:00 14,9 7,0 0,0
16.06.2019 15:00:00 14,6 6,8 0,0
16.06.2019 14:00:00 14,7 6,5 0,0
16.06.2019 13:00:00 14,9 5,7 0,0
16.06.2019 12:00:00 16,2 7,0 0,0
16.06.2019 11:00:00 14,8 6,0 0,0
16.06.2019 10:00:00 13,8 6,5 0,0
16.06.2019 09:00:00 13,2 7,6 0,0
16.06.2019 08:00:00 12,3 7,5 0,0
16.06.2019 07:00:00 11,9 9,5 0,0
16.06.2019 06:00:00 10,3 9,4 0,2
16.06.2019 05:00:00 8,6 8,4 0,0
16.06.2019 04:00:00 8,8 8,2 0,0
16.06.2019 03:00:00 9,9 9,5 0,6
16.06.2019 02:00:00 10,4 9,5 0,6
16.06.2019 01:00:00 11,6 8,9 0,0
16.06.2019 00:00:00 13,0 9,0 0,0
15.06.2019 23:00:00 13,3 9,1 0,0
15.06.2019 22:00:00 14,2 9,2 0,0
15.06.2019 21:00:00 14,9 8,7 0,0
15.06.2019 20:00:00 15,5 10,6 0,0
15.06.2019 19:00:00 15,9 10,2 0,0
15.06.2019 18:00:00 16,9 7,5 0,0
15.06.2019 17:00:00 16,7 7,3 0,0
15.06.2019 16:00:00 17,2 6,7 0,0
15.06.2019 15:00:00 17,7 6,4 0,0
15.06.2019 14:00:00 17,1 7,9 0,0
15.06.2019 13:00:00 15,0 8,5 0,2
15.06.2019 12:00:00 15,7 9,7 0,0
15.06.2019 11:00:00 14,5 9,5 0,0
15.06.2019 10:00:00 13,2 8,9 0,0
15.06.2019 09:00:00 11,9 8,1 0,0
15.06.2019 08:00:00 11,4 7,5 0,0
15.06.2019 07:00:00 11,3 7,4 0,0
15.06.2019 06:00:00 10,1 8,1 0,0
15.06.2019 05:00:00 9,0 7,6 0,0
15.06.2019 04:00:00 8,2 7,0 0,0
15.06.2019 03:00:00 9,2 7,3 0,0
15.06.2019 02:00:00 9,1 7,6 0,0
15.06.2019 01:00:00 8,8 7,6 0,0
15.06.2019 00:00:00 8,4 6,5 0,0
14.06.2019 23:00:00 8,9 6,8 0,0
14.06.2019 22:00:00 8,1 6,0 0,0
14.06.2019 21:00:00 10,9 5,5 0,0
14.06.2019 20:00:00 14,2 4,7 0,0
14.06.2019 19:00:00 15,7 5,6 0,0
14.06.2019 18:00:00 14,9 4,8 0,0
14.06.2019 17:00:00 15,6 4,7 0,0
14.06.2019 16:00:00 14,7 3,6 0,0
14.06.2019 15:00:00 15,3 5,4 0,0
14.06.2019 14:00:00 12,9 6,2 0,0
14.06.2019 13:00:00 13,6 4,5 0,0
14.06.2019 12:00:00 13,1 5,5 0,2
14.06.2019 11:00:00 11,2 6,3 0,0
14.06.2019 10:00:00 12,1 6,4 0,0
14.06.2019 09:00:00 11,0 6,9 0,0
14.06.2019 08:00:00 10,9 6,5 0,0
14.06.2019 07:00:00 9,1 7,2 0,0
14.06.2019 06:00:00 7,5 7,3 0,0
14.06.2019 05:00:00 7,3 7,2 0,0
14.06.2019 04:00:00 7,3 6,9 0,0
14.06.2019 03:00:00 7,7 7,5 0,2
14.06.2019 02:00:00 7,7 7,5 0,2
14.06.2019 01:00:00 7,8 7,6 0,2
14.06.2019 00:00:00 7,8 7,4 0,0
13.06.2019 23:00:00 8,0 7,4 0,0
13.06.2019 22:00:00 8,6 7,8 0,4
13.06.2019 21:00:00 9,3 7,3 0,0
13.06.2019 20:00:00 9,7 6,9 0,0
13.06.2019 19:00:00 9,7 6,9 0,2
13.06.2019 18:00:00 9,5 5,6 0,0
13.06.2019 17:00:00 9,5 5,7 0,0
13.06.2019 16:00:00 10,2 5,9 0,0
13.06.2019 15:00:00 9,6 5,4 0,0
13.06.2019 14:00:00 9,7 5,1 0,0
13.06.2019 13:00:00 9,9 5,4 0,0
13.06.2019 12:00:00 11,0 5,9 0,0
13.06.2019 11:00:00 8,2 5,9 0,2
13.06.2019 10:00:00 8,5 4,8 0,0
13.06.2019 09:00:00 7,4 5,6 0,0
13.06.2019 08:00:00 7,0 5,4 0,0
13.06.2019 07:00:00 6,9 3,9 0,0
13.06.2019 06:00:00 6,6 3,9 0,0
13.06.2019 05:00:00 6,7 3,7 0,0
13.06.2019 04:00:00 7,0 4,1 0,0
13.06.2019 03:00:00 7,2 4,4 0,0
13.06.2019 02:00:00 7,3 5,3 0,0
13.06.2019 01:00:00 7,3 5,8 0,2
13.06.2019 00:00:00 7,8 6,9 0,2
12.06.2019 23:00:00 8,1 7,0 0,2

tt = temperature
td = dewpoint
rr = precipitation

Next stations